Regional Weather Roundup
Issued by NWS Sterling, VA

Home | Current Version | Previous Version | Graphics & Text | Print | Product List | Glossary On
Versions: 1 2 3 4 5 6 7 8 9 10 11 12 13 14 15 16 17 18 19 20 21 22 23 24 25 26 27 28 29 30 31 32 33 34 35 36 37 38 39 40 41 42 43 44 45 46 47 48 49 50
000
ASUS41 KLWX 270410
RWRLWX

REGIONAL WEATHER ROUNDUP
NATIONAL WEATHER SERVICE BALTIMORE MD/WASHINGTON DC
1100 PM EST MON JAN 26 2015

Note: "FAIR" indicates few or no clouds below 12,000 feet
with no significant weather and/or obstructions to visibility.
 TC=TEMPERATURE CELSIUS

 * =Non NWS site. Station does not report precipitation (e.g. rain,
    snow, etc.), thunder, or fog.

DCZ001-MDZ009-015-VAZ040>042-051-053>054-270500-
WASHINGTON METRO

CITY           SKY/WX    TMP DP  RH WIND       PRES   REMARKS
WASHINGTON NAT LGT SNOW  29  23  78 NW15      29.76F WCI  18
DULLES         LGT SNOW  26  23  88 N15G22    29.76F VSB 3/4 WCI  14
ANDREWS AFB    LGT SNOW  27  24  89 NW10      29.73S FOG     WCI  17
FT BELVOIR     LGT SNOW  27  25  93 NW9G17    29.76F FOG     WCI  17
QUANTICO       LGT RAIN  30  24  78 N13G24    29.77S WCI  20
COLLEGE PARK*  CLOUDY    28  25  86 N8        29.75F WCI  20
LEESBURG*      LGT SNOW  28  28 100 N12       29.78F WCI  18
MANASSAS*      CLOUDY    28  28 100 N10       29.76F WCI  19
GAITHERSBURG*  CLOUDY    25  19  80 NW5       29.78F

$$

MDZ006>007-011-014-270500-
BALTIMORE METRO

CITY           SKY/WX    TMP DP  RH WIND       PRES   REMARKS
BWI AIRPORT    LGT SNOW  27  22  81 N8G17     29.74S WCI  19
MD SCIENCE CTR   N/A     27  22  81 MISG      29.74S
MARTIN STATE   FLURRIES  30  27  86 NW9       29.76R WCI  22
ANNAPOLIS      LGT SNOW  30  25  81 NW13      29.73S WCI  20
FORT MEADE*    CLOUDY    28  25  86 NE7       29.76S

$$

MDZ012-015-019>023-270500-
MARYLAND EASTERN SHORE

CITY           SKY/WX    TMP DP  RH WIND       PRES   REMARKS
OCEAN CITY     CLOUDY    35  32  88 N22G35    29.60R WCI  23
SALISBURY      CLOUDY    34  29  82 N14G25    29.63S WCI  25
BAY BRIDGE AP* LGT SNOW  30  28  93 N10G17    29.73R WCI  21
CAMBRIDGE*     CLOUDY    32  28  86 CALM      29.68S
EASTON*        FLURRIES  31  31  99 N10       29.74R WCI  22

$$

MDZ017>025-270500-
SOUTHERN MARYLAND

CITY           SKY/WX    TMP DP  RH WIND       PRES   REMARKS
PATUXENT RIVER LGT SNOW  31  27  85 N18       29.70R FOG     WCI  19
ST INIGOES     LGT SNOW  32  26  78 NW8G18    29.69R WCI  25
LEONARDTOWN*   CLOUDY    32  28  86 N7        29.72R

$$

MDZ003>005-270500-
NORTH CENTRAL MARYLAND

CITY           SKY/WX    TMP DP  RH WIND       PRES   REMARKS
FREDERICK*     LGT SNOW  28  23  80 NE7       29.81F
HAGERSTOWN APT LGT SNOW  25  22  88 NW7       29.78F FOG
WESTMINSTER*   LGT SNOW  23  21  93 N6        29.73F

$$

MDZ501>502-270500-
WESTERN MARYLAND

CITY           SKY/WX    TMP DP  RH WIND       PRES   REMARKS
OAKLAND*       FOG       19 N/A N/A W3        29.69R VSB 1
CUMBERLAND*    CLOUDY    28  27  93 CALM      29.85R

$$

VAZ025>031-270500-
SHENANDOAH VALLEY

CITY           SKY/WX    TMP DP  RH WIND       PRES   REMARKS
WINCHESTER*    FLURRIES  28  23  80 NW5       29.78S
FRONT ROYAL*   CLOUDY    27  25  93 CALM      29.77F
LURAY*         LGT SNOW  28  28 100 NE6       29.76S
NEW MARKET*    CLOUDY    28  26  93 N5        29.75S
STAUNTON*      CLOUDY    30  28  91 NE6       29.74S FOG
WAYNESBORO*    CLOUDY    29  28  96 N7        29.71S

$$

WVZ021-048>050-054>055-270500-
EASTERN WEST VIRGINIA PANHANDLE

CITY           SKY/WX    TMP DP  RH WIND       PRES   REMARKS
MARTINSBURG    CLOUDY    27  22  81 NW6       29.79S
PETERSBURG*    LGT SNOW  29  29 100 CALM      29.79R

$$

VAZ036>039-050-270500-
CENTRAL FOOTHILLS

CITY           SKY/WX    TMP DP  RH WIND       PRES   REMARKS
CHARLOTTESVILL CLOUDY    31  28  89 E8        29.72S WCI  23
CULPEPER*      MOCLDY    28  27  93 N10       29.75F WCI  19
ORANGE*        PTCLDY    32  28  86 NW7       29.75R
GORDONSVILLE*  CLOUDY    30  26  86 CALM      29.72S
WARRENTON*     CLOUDY    29  29 100 N7        29.74F

$$

VAZ055>057-270500-
NORTH AND CENTRAL PIEDMONT

CITY           SKY/WX    TMP DP  RH WIND       PRES   REMARKS
FREDERICKSBRG* LGT SNOW  31  30  97 N12G21    29.74F WCI  22
STAFFORD*      LGT SNOW  29  29 100 CALM      29.79S

$$

NCZ024-NYZ072-PAZ021-071-VAZ022-071-270500-
OTHER REGIONAL OBSERVATIONS

CITY           SKY/WX    TMP DP  RH WIND       PRES   REMARKS
NEW YORK CITY  LGT SNOW  25  20  81 NE12G30   29.73F VSB 3/4 WCI  14
PHILADELPHIA   FLURRIES  29  22  75 N15       29.71F WCI  18
PITTSBURGH     FLURRIES  20  17  88 NW12      29.84S WCI   8
ROANOKE        CLOUDY    32  22  66 NW9       29.77R WCI  24
RICHMOND       CLOUDY    34  30  86 N12       29.70S WCI  25
RALEIGH        DRIZZLE   42  36  79 VRB5      29.69S

$$

ANZ530>537-270500-
MARINE OBSERVATIONS

STATION/POSITION TIME  TEMP    WIND        PRES
                       AIR SEA DIR/SP/G
                 (UTC) (F)     (DEG/KT/KT) (MB)
THOMAS PT LIGHT  0400   29 37  350/ 16/ 18 1007.5R
BALT KEY BRIDGE  0400   28     320/ 12/ 14 1007.0S
COVE POINT       0400   30     360/ 19/ 24 1005.6R
LEWISETTA        0400   32 39  350/ 15/ 21 1005.1F
SOLOMONS ISLAND  0400      39                N/A
PINEY POINT      0400          360/ 15/ 19   N/A

$$



USA.gov is the U.S. government's official web portal to all federal, state and local government web resources and services.